星链-30617 (STARLINK-30617 )

导读

STARLINK-30617是美国SpaceX星链星座中的一颗卫星,于2023年10月21日发射升空。作为星链互联网星座的组成部分,它旨在为全球提供高速低延迟卫星互联网服务,尤其覆盖偏远地区,推动全球互联,也体现了美国在商业航天领域持续推进卫星组网布局的进程。

基本信息
目录编号:
58104
目录名称:
STARLINK-30617
国际标识:
2023-161H
轨道中心:
EARTH
卫星名称:
星链-30617
卫星全名:
星链-30617 (STARLINK-30617 )
卫星状态:
在轨 (已飞行1049 天)
发射日期:
2023-10-21 UTC
国别 :
美国 (US)
星等 :
--
轨道信息
数据来源 国际轨道数据
星历时间: 2026-09-02T20:19:02+0800
1天前
查看轨道信息
半长轴: 6840.87km
偏心率: 0.0001016
轨道倾角: 53.160°
近地点辐角 89.552°
升交点赤经 61.914°
平近点角 270.560°
近地点: 462.037km
远地点: 463.429km
周期: 93.848分钟
每日圈数: 15.3439
详细信息
固有亮度:
5
最大亮度:
0.3
卫星平台:
Starlink v2.0 mini
覆盖范围:
全球
运营商:
太空探索技术公司
运营商所在国:
美国
制造商(研发单位):
太空探索技术公司
制造商所在国:
美国
使用方式:
暂无
卫星简介
星链(Starlink)计划是由太空探索技术公司(SpaceX)提出的一个巨型低轨卫星互联网星座项目,计划在2019年至2024年间在太空搭建由约1.2万颗卫星组成的“星链”网络,其中1584颗将部署在地球上空550千米处的近地轨道,并从2020年开始工作。该卫星仍在工作。
2D轨道图
3D轨道图
轨道高度分析图
轨道倾角分析图
轨道综合分析图
查看轨道综合分析图
交会数据列表
事件ID 空间交会对象 最接近时刻(TCA) 交会距离 交会风险概率(CRP) 交会风险指数(CRI) 操作
CDM_260905-074905-810406-582321
2026-09-05T
07:49:05+0000
0.519 km
远距离
1.25646E-4 高风险 0.77
CDM_260905-004202-057605-810421
2026-09-05T
00:42:07+0000
2.735 km
极远距离
1.463264E-6 低风险 0.38
CDM_260905-063905-112505-810421
2026-09-05T
06:39:27+0000
2.826 km
极远距离
1.273728E-6 低风险 0.37
CDM_260905-061505-810406-582321
2026-09-05T
06:15:18+0000
2.785 km
极远距离
1.004143E-6 低风险 0.35
CDM_260905-092205-810406-582321
2026-09-05T
09:22:53+0000
2.792 km
极远距离
1.000495E-6 低风险 0.35